Regional Weather Roundup
Issued by NWS

Home | Current Version | Previous Version | Text Only | Print | Product List | Glossary Off
Versions: 1 2 3 4 5 6 7 8 9 10 11 12 13 14 15 16 17 18 19 20 21 22 23 24 25 26 27 28 29 30 31 32 33 34 35 36 37 38 39 40 41 42 43 44 45 46 47 48 49 50

929
ASUS43 KLMK 290010
RWRKY
KENTUCKY REGIONAL WEATHER ROUNDUP
NATIONAL WEATHER SERVICE LOUISVILLE KY
800 PM EDT SUN MAY 28 2017

NOTE "FAIR" INDICATES FEW OR NO CLOUDS BELOW 12,000 FEET
WITH NO SIGNIFICANT WEATHER AND/OR OBSTRUCTIONS TO VISIBILITY.

KYZ001>023-026-027-061>063-070>075-290100-
WESTERN AND SOUTH CENTRAL KENTUCKY

CITY           SKY/WX    TMP DP  RH WIND       PRES   REMARKS
PADUCAH        CLOUDY    71  66  84 SW5       29.88S
HENDERSON      MOSUNNY   73  67  81 SW8       29.86R
OWENSBORO      CLOUDY    71  67  87 SW8       29.86S
HOPKINSVILLE   MOSUNNY   74  64  70 SW12      29.89R
BOWLING GREEN  CLOUDY    75  65  70 W8        29.89R
GLASGOW        CLOUDY    72  62  71 W6        29.90R
$$

KYZ024-025-028>034-038-045-046-053-290100-
NORTH CENTRAL KENTUCKY

CITY           SKY/WX    TMP DP  RH WIND       PRES   REMARKS
LOUISVILLE/SDF CLOUDY    75  63  66 SW9       29.83R
LOUISVILLE/LOU MOCLDY    75  65  70 SW6       29.84R
FORT KNOX      MOCLDY    71  64  78 SW9       29.84R
$$

KYZ035>037-039>044-047>052-055>060-089>105-290100-
NORTHEAST KENTUCKY

CITY           SKY/WX    TMP DP  RH WIND       PRES   REMARKS
LEXINGTON      PTCLDY    72  62  71 W12       29.86R
COVINGTON      MOCLDY    70  63  78 SW6       29.81R
FRANKFORT      CLEAR     72  62  71 SW7       29.83R
$$

KYZ054-064>069-076>088-106>120-290100-
SOUTHEAST KENTUCKY

CITY           SKY/WX    TMP DP  RH WIND       PRES   REMARKS
JACKSON        LGT RAIN  70  61  73 CALM      29.88S
LONDON         CLEAR     73  59  61 SW8       29.89F
SOMERSET       CLOUDY    72  61  68 SW5       29.90S
MIDDLESBORO    PTCLDY    75  61  62 CALM      29.91S
MONTICELLO     MOCLDY    73  62  68 W14       29.92R
$$





USA.gov is the U.S. government's official web portal to all federal, state and local government web resources and services.